sat.trackr.live / text

‹ back to catalog

STARLINK-34748

NORAD 64848 · 2025-152G

PAYLOAD ACTIVE UNKNOWN

§ Identity

Operator
Country
US
Launch date
2025-07-19
Launch site
AFWTR
Launch vehicle
Mass (kg)
RCS (m²)

Purposes: comms

External: N2YO · Heavens-Above · Gunter

§ Orbital elements

Epoch: 2026-05-25T03:20:16.778976Z

Period
95.64 min
Inclination
97.4515°
Eccentricity
0.0001703
Mean motion
15.05658367 rev/d
Perigee alt
548.3 km
Apogee alt
550.7 km
Semi-major
6,927.6 km
B*
3.0447e-4
RAAN
0.5229°
Arg perigee
94.9271°
Mean anomaly
265.2150°
Rev number
4,692

§ Raw data

STARLINK-347481 64848U 25152G   26145.13908309  .00004338  00000+0  30447-3 0  99942 64848  97.4515   0.5229 0001703  94.9271 265.2150 15.05658367 46922

JSON: /api/v1/satellites/64848 · /tle

For live sub-satellite position, see the globe view (requires WebGL).

§ Visibility from observer

Set your observer location to see the next 7 days of passes ≥ 10°. The values pass through the URL so the page stays shareable.

No JS? Fill the form by hand. The geolocation button needs JavaScript.